Wind_Speed
20 20 20 20 20 20 20 20 19 20 20 20 20 20 19 18 18 18 17 17 16 16 16 16 16 17 17 18 20 22 22 21 22 24 25 23 21 20 20 20 22 22 20 19 20 21 21 20 19 18 18 17 16 15 15 15 15 14 13 13 12 11 11 11 11 11 12 11 10
20 19 19 19 18 18 19 19 19 19 19 19 19 19 18 17 17 17 17 16 15 15 15 15 15 16 17 18 19 21 21 21 23 24 24 23 20 19 20 21 22 22 20 19 20 21 21 20 19 17 17 17 16 15 15 15 15 14 13 13 12 11 11 11 10 11 11 11 11
20 19 18 17 17 17 18 18 18 19 19 19 18 18 17 17 16 16 15 16 15 15 14 14 15 16 17 17 19 19 20 20 23 25 24 22 19 19 20 22 23 22 20 19 21 21 21 20 19 17 17 16 15 14 14 15 14 14 13 13 12 12 11 11 10 10 10 10 10
19 18 18 17 17 17 18 18 18 18 18 18 18 17 17 16 16 15 15 15 15 15 14 15 16 16 16 17 19 19 20 21 23 24 24 22 19 19 21 22 23 22 20 20 21 22 21 20 18 17 16 16 15 14 14 14 14 13 13 13 12 12 12 12 11 10 10 10 10
18 18 18 17 17 18 18 17 17 18 17 17 17 17 17 16 15 14 14 14 14 14 14 15 16 17 17 18 20 20 20 21 23 24 23 22 20 20 21 22 22 21 20 21 22 22 21 19 17 15 15 15 15 14 14 15 14 14 13 13 13 12 12 12 11 11 11 11 11
18 18 17 16 17 17 17 17 16 17 17 16 16 16 16 15 13 13 14 14 14 14 14 15 17 18 18 19 20 21 20 20 22 22 22 22 21 20 20 21 21 20 20 21 22 21 20 18 16 15 14 14 14 14 14 15 15 14 13 13 13 13 12 11 11 12 12 12 11
18 17 16 16 16 17 16 16 16 16 16 16 16 15 14 13 12 12 13 13 13 14 15 16 18 19 20 20 21 21 21 20 21 21 21 21 21 20 20 20 19 19 20 21 21 21 19 17 15 14 15 15 14 14 15 15 15 14 13 13 13 13 13 12 12 12 12 12 11
17 17 17 17 17 17 16 16 16 15 15 15 17 16 14 12 12 12 13 14 14 15 16 17 19 21 21 21 21 21 21 20 20 21 21 21 21 20 20 19 19 19 20 21 21 20 19 17 15 14 15 15 15 15 15 16 15 15 13 12 13 13 13 12 12 12 12 12 11
17 17 18 17 17 16 17 16 16 15 15 16 16 15 14 12 13 14 15 15 15 15 16 18 20 22 22 22 21 21 21 21 21 20 21 21 21 21 20 19 19 20 20 21 21 20 19 17 15 15 16 16 16 16 16 16 16 15 13 12 12 13 13 12 11 11 10 10 9
17 18 18 17 17 17 17 16 15 15 15 15 14 13 13 14 15 17 17 17 16 16 17 19 21 22 23 22 21 21 21 21 20 20 19 20 21 21 21 20 20 20 20 20 20 20 19 17 15 15 16 17 17 17 17 16 15 14 13 11 11 11 11 10 10 9 9 8 8
17 17 17 18 17 17 16 15 15 15 14 13 13 14 15 16 18 19 20 20 19 18 19 20 22 22 23 22 22 21 21 20 18 18 18 19 21 22 22 21 21 21 20 20 20 19 18 16 15 15 16 16 17 17 16 16 15 13 12 11 10 10 9 9 9 8 8 7 7
16 17 17 17 17 16 16 15 15 15 14 14 15 17 19 19 20 21 22 23 22 20 20 21 21 22 23 23 22 21 19 17 16 17 17 18 20 21 22 21 22 21 21 21 20 19 18 16 15 16 16 16 16 16 16 15 14 12 11 10 9 9 9 8 8 8 8 7 8
16 16 16 16 16 16 15 15 15 15 16 17 18 19 20 19 20 21 23 24 23 21 20 21 21 22 22 22 21 20 17 15 15 16 17 18 19 20 21 21 21 21 21 21 21 20 18 17 16 16 16 16 15 15 15 14 13 12 11 10 9 9 9 8 8 8 8 8 8
16 15 15 16 17 17 17 17 17 17 18 19 20 19 18 18 19 22 23 24 23 22 21 21 22 22 22 21 20 18 16 15 15 16 17 17 18 19 20 20 21 21 20 21 21 20 19 17 17 16 16 16 15 15 15 14 13 12 11 10 10 9 9 8 8 8 8 8 8
15 15 16 17 18 18 18 18 18 19 19 19 18 18 17 18 19 21 23 23 23 23 22 22 22 21 21 20 17 16 15 15 16 16 17 17 18 19 19 20 21 21 21 21 21 20 19 17 16 16 16 15 15 15 14 13 12 11 11 10 9 9 8 8 8 8 8 7 7
14 15 16 17 19 19 19 18 17 17 17 16 16 16 17 18 19 21 22 22 22 22 22 22 21 20 19 17 15 15 16 16 16 16 17 17 18 19 19 20 21 21 21 21 20 19 18 17 16 16 15 15 15 15 14 13 12 11 11 10 9 8 7 7 7 7 7 7 6
15 16 16 16 17 18 17 15 14 14 14 14 15 16 17 18 20 21 21 21 22 22 22 21 20 19 17 15 15 15 16 16 16 16 17 18 18 19 20 20 21 21 21 21 19 18 17 15 15 15 15 15 14 14 14 13 12 11 10 10 9 8 7 6 6 6 6 6 6
15 16 16 16 15 15 15 13 12 12 13 13 15 16 18 19 20 21 21 22 22 23 22 21 19 18 17 15 15 16 16 16 16 16 17 17 19 19 19 20 21 21 21 20 19 17 16 15 14 14 14 14 14 13 13 12 11 10 9 8 8 7 6 6 6 5 5 5 5
13 13 14 14 13 13 13 12 12 12 13 14 15 17 18 20 20 21 22 22 23 23 22 20 18 17 16 16 16 15 15 15 15 16 16 17 18 19 19 19 19 20 19 19 18 17 16 15 15 14 14 14 13 13 12 12 10 9 8 7 7 7 6 6 5 5 5 5 4
11 11 11 12 12 12 12 12 12 12 13 15 16 17 18 19 20 21 22 22 22 21 20 19 17 16 16 16 15 15 15 14 15 15 15 16 17 18 18 18 18 18 18 17 16 16 16 15 15 15 14 14 13 13 12 11 10 9 8 7 6 6 6 6 6 6 6 6 6
11 11 11 11 11 11 12 12 12 13 14 15 16 17 17 18 19 20 21 21 21 19 18 17 16 16 15 16 15 14 14 14 14 15 15 15 16 16 17 17 17 17 16 16 15 15 15 15 15 15 14 14 13 13 12 11 9 8 8 8 7 7 8 8 7 7 6 6 6
12 11 11 11 11 11 11 11 12 13 15 15 16 17 17 17 17 19 19 19 18 18 17 16 15 15 16 15 15 14 14 13 14 14 15 15 15 15 15 16 16 16 15 15 15 15 15 15 15 15 14 14 13 13 12 10 10 10 10 9 9 8 8 7 7 6 6 6 6
12 12 12 12 11 11 10 11 13 15 15 15 16 16 16 17 17 17 17 17 17 17 17 16 15 15 15 15 15 14 14 13 14 14 14 14 14 14 15 15 15 15 14 14 15 15 15 15 15 15 14 14 13 12 11 10 11 11 11 10 9 8 7 7 6 6 6 6 7
13 13 13 12 12 11 11 12 14 15 16 16 16 16 16 16 15 15 15 16 16 17 16 15 15 15 15 15 15 15 14 14 14 13 13 13 13 13 14 13 13 13 13 13 15 16 16 15 15 14 14 13 12 11 11 11 11 11 11 10 9 8 8 7 7 7 8 8 9
14 14 13 12 11 11 12 14 16 17 17 17 17 16 16 14 13 14 15 16 17 16 16 15 15 15 15 14 14 14 14 14 14 14 13 13 13 13 13 13 12 12 13 14 16 16 16 16 15 15 14 13 12 11 12 12 11 11 11 10 10 9 9 9 9 10 10 10 10
14 14 13 12 11 12 14 15 17 19 19 18 17 16 14 13 13 15 16 17 17 16 16 15 15 15 15 15 15 15 14 14 14 14 14 14 14 14 14 14 13 14 15 16 16 16 16 16 16 15 14 13 13 13 12 12 11 11 10 10 10 10 11 12 13 13 12 11 11
14 13 12 12 13 13 15 16 18 19 19 18 17 15 14 14 15 16 16 17 17 16 16 16 16 16 15 15 15 15 14 14 14 13 13 14 14 14 14 14 14 15 15 15 15 15 15 15 15 15 15 14 13 13 13 12 12 11 11 11 11 12 13 14 14 14 14 13 12
13 13 13 14 15 15 16 17 18 19 19 18 16 16 16 16 16 16 17 17 17 17 16 16 16 16 15 15 15 15 16 15 14 13 13 13 13 13 13 13 13 14 14 15 14 14 15 15 14 14 14 13 13 13 13 13 13 13 13 13 13 13 14 14 15 15 14 13 12
15 15 16 17 17 17 17 17 18 18 17 17 17 17 17 17 17 17 17 17 17 17 17 17 16 16 16 16 16 17 16 16 14 13 13 13 13 13 13 13 13 14 15 15 15 14 14 14 14 14 13 13 13 13 14 14 15 15 15 14 14 14 15 15 16 15 14 14 13
17 18 18 19 19 18 18 17 17 17 17 17 17 17 17 17 17 17 17 17 17 17 17 17 17 16 16 16 16 16 15 15 14 14 13 13 14 14 14 14 14 14 15 15 15 15 15 15 14 14 14 14 15 16 16 16 16 16 16 16 16 16 16 16 16 15 14 13 12
20 21 21 20 20 19 18 18 18 17 17 17 17 17 17 17 16 16 17 17 18 18 18 18 18 18 17 17 16 16 15 15 15 14 14 14 15 15 15 14 14 13 13 14 15 16 16 15 16 16 16 16 17 17 17 17 17 17 17 17 17 17 17 17 15 14 13 12 11
22 23 22 21 20 19 19 18 18 18 17 17 17 17 17 17 17 17 18 19 19 19 19 19 18 18 17 17 17 17 16 16 16 16 16 16 16 16 16 15 14 12 12 12 13 14 15 15 15 16 16 16 17 17 17 17 17 18 18 18 18 18 17 16 14 13 11 10 10
23 24 23 21 20 19 19 19 19 18 17 17 17 17 18 18 18 19 19 20 20 20 19 19 18 18 18 18 18 18 18 18 18 18 17 18 18 18 18 17 15 13 11 10 11 12 13 13 14 15 15 16 16 16 17 18 18 19 19 19 18 17 15 14 13 11 10 9 9
24 24 22 21 19 19 19 19 18 18 18 17 17 18 18 19 19 19 20 20 21 20 20 19 19 19 19 20 20 20 20 19 19 19 19 19 19 19 19 18 16 14 12 11 11 12 12 13 14 14 15 16 16 17 18 19 19 20 19 18 17 15 13 12 11 10 9 9 8
23 22 21 20 19 19 18 18 18 18 18 18 17 18 18 19 19 20 20 21 21 21 20 20 19 19 20 20 21 21 21 21 20 20 20 20 21 21 20 19 17 15 14 13 13 13 14 14 14 15 15 16 17 17 18 19 19 19 18 17 16 14 12 11 10 9 9 8 8
21 21 20 19 19 18 18 18 18 18 18 18 18 18 19 19 20 21 21 22 22 21 21 20 20 20 20 20 20 21 21 21 21 21 21 21 22 22 21 20 18 16 15 15 15 15 15 15 15 15 15 15 16 17 18 19 18 18 17 16 14 13 11 10 10 9 9 9 8
19 20 20 20 19 18 18 18 18 19 19 19 19 19 20 20 20 21 21 22 22 22 21 21 21 21 21 21 20 20 21 21 21 21 21 22 22 22 22 20 18 16 15 15 15 16 15 14 13 13 13 14 16 17 17 18 17 16 15 14 13 11 10 10 10 10 10 10 9
18 19 20 20 20 19 18 19 19 19 20 20 20 20 20 21 21 21 21 22 22 22 22 22 21 21 21 22 21 21 21 20 21 21 21 21 21 21 21 20 18 16 15 15 14 14 13 12 11 10 11 13 15 16 17 17 16 15 14 13 12 11 10 10 10 10 10 10 11
18 19 20 20 20 20 20 20 20 20 20 20 21 21 21 21 21 22 22 23 23 23 23 23 22 22 22 23 22 22 21 20 20 20 20 20 20 20 20 19 17 16 14 13 12 11 10 9 8 8 9 11 14 16 16 17 16 15 14 13 13 12 11 10 10 9 10 10 12
18 19 19 20 20 20 20 20 19 19 20 21 21 22 21 22 22 23 24 24 24 24 24 24 23 23 23 23 23 22 21 20 19 19 19 19 18 18 17 17 16 14 12 11 10 9 8 8 7 7 8 11 13 15 16 16 16 15 14 13 13 12 11 10 10 10 10 10 11
17 18 19 20 20 21 21 20 19 20 21 21 22 22 22 23 23 24 24 24 25 25 25 24 24 23 23 23 22 21 20 19 19 18 18 17 16 16 15 14 14 12 11 9 9 9 8 8 7 6 8 11 14 15 16 16 16 15 14 13 12 12 11 10 9 9 9 9 10
Wind_Direction
200 199 198 196 195 194 194 195 195 196 196 197 197 197 198 199 200 200 197 194 194 195 195 194 190 190 191 192 194 195 195 193 195 197 198 197 196 196 197 199 200 199 195 192 191 190 190 191 192 192 191 189 189 191 195 198 198 196 194 194 193 193 192 192 193 195 196 198 200
201 201 200 198 196 195 195 195 195 196 197 198 198 198 199 200 201 201 198 194 190 190 191 190 188 189 191 192 193 194 193 192 195 197 197 195 194 195 197 199 200 198 194 191 191 190 191 192 191 191 190 189 189 190 195 199 199 197 194 194 193 192 192 192 194 196 197 198 200
202 202 201 200 198 196 195 195 195 195 196 197 198 198 199 200 202 200 197 194 192 190 189 188 188 190 191 191 191 191 191 191 195 196 196 193 193 194 196 199 200 198 194 192 192 192 193 193 191 191 191 190 189 190 194 199 200 197 194 193 193 192 192 192 194 194 195 197 199
202 202 203 202 201 198 196 196 195 194 195 196 198 199 200 200 202 201 196 192 191 191 191 189 190 192 191 189 189 189 190 193 196 197 195 193 193 194 197 201 201 197 194 193 194 194 194 193 191 191 193 192 190 190 193 197 197 195 193 193 193 193 193 192 193 192 194 197 199
201 202 202 203 202 201 199 198 196 195 195 196 198 200 200 200 202 200 196 192 191 192 192 189 190 190 188 187 189 189 191 194 197 197 196 193 193 194 198 202 200 197 195 195 195 195 194 191 188 189 191 191 190 190 193 196 194 192 191 192 194 194 194 193 193 195 197 200 202
200 200 201 202 202 202 201 200 198 196 196 197 198 200 200 198 198 198 197 193 194 194 193 189 190 190 189 188 190 191 192 194 196 196 195 193 193 195 198 200 198 196 195 195 195 194 192 188 185 186 187 188 187 189 192 193 191 189 189 191 194 195 194 193 195 198 201 203 205
198 196 197 200 201 202 202 201 200 198 197 197 199 200 200 196 195 196 197 197 196 195 193 192 192 192 191 190 191 192 192 193 194 194 193 192 192 193 194 195 194 193 194 194 193 192 189 186 183 182 183 183 183 186 189 189 187 185 186 189 192 194 193 193 197 200 202 205 206
195 193 194 198 200 202 202 202 201 199 196 196 199 202 203 200 198 198 201 202 200 195 191 192 193 193 192 191 191 192 192 191 191 191 191 191 191 190 190 190 191 192 193 193 192 190 187 184 182 180 180 181 181 182 184 184 183 182 183 185 189 190 191 192 196 198 201 205 205
194 193 193 195 199 201 202 201 201 199 198 198 199 202 204 206 206 206 206 205 200 193 189 191 193 195 194 192 191 190 190 189 188 188 189 190 189 188 187 188 189 190 192 192 191 189 186 182 181 180 180 180 179 179 179 178 178 178 178 180 185 188 188 189 192 196 199 201 202
195 193 192 192 197 200 201 200 199 197 197 197 198 201 204 208 211 210 206 201 196 190 187 190 193 195 194 192 190 190 190 189 188 186 186 188 188 188 187 188 188 189 190 190 189 187 184 181 180 180 180 178 177 176 175 174 174 175 176 178 183 186 187 188 192 195 198 200 201
195 192 190 191 195 198 199 197 195 194 194 195 198 201 205 208 211 209 204 198 192 188 187 191 193 193 192 191 190 190 190 188 186 184 184 185 188 189 189 189 189 189 188 187 186 184 182 181 180 180 179 176 174 173 173 172 172 173 175 179 181 184 186 191 194 198 201 205 208
197 194 189 188 191 194 195 193 191 192 193 196 199 203 205 206 206 204 200 196 191 189 189 190 191 191 191 190 191 191 190 187 185 183 183 184 187 189 190 190 190 188 186 185 183 182 181 181 181 180 178 174 172 172 172 172 172 173 176 180 183 185 188 194 200 203 207 212 218
198 196 190 185 186 189 191 190 190 192 195 199 201 203 204 202 200 197 195 193 191 189 188 188 189 189 190 190 191 190 188 185 184 183 183 184 186 187 188 189 188 186 184 183 182 181 181 182 181 179 176 174 172 173 174 173 174 175 178 181 185 189 193 198 204 208 213 218 221
198 196 188 182 184 187 188 188 190 193 196 198 200 200 198 196 194 193 191 190 189 189 188 186 186 188 190 190 190 189 186 184 183 183 183 184 185 185 185 186 185 183 182 182 182 182 182 182 181 179 176 174 173 175 176 175 176 178 181 184 187 191 197 202 206 210 214 217 220
198 194 185 180 183 185 187 187 189 191 193 194 194 194 192 191 191 190 189 187 188 188 188 186 186 188 189 189 188 186 184 184 183 183 182 183 183 183 183 183 182 181 181 182 183 183 183 183 181 179 177 175 175 176 178 178 179 181 184 187 191 194 197 199 205 209 210 212 214
198 193 185 181 182 183 184 184 185 186 188 189 189 189 188 188 189 189 187 185 185 186 186 186 185 186 187 186 185 184 184 183 183 182 182 181 181 182 181 181 181 181 181 182 183 183 184 183 181 180 178 177 176 177 179 180 182 184 188 192 195 196 194 193 199 203 206 208 211
192 190 186 183 180 179 178 179 180 182 184 187 186 185 185 186 186 186 184 183 182 183 183 184 184 184 183 182 182 182 182 182 182 182 182 182 181 180 180 180 180 181 182 182 182 183 183 182 181 180 178 177 177 178 180 181 183 187 192 196 196 194 191 191 195 199 202 206 209
187 184 182 181 178 175 175 177 179 181 184 186 184 183 183 183 182 182 182 182 181 180 180 181 182 181 181 180 180 180 180 180 181 182 182 182 181 179 179 179 179 181 182 182 182 181 181 181 180 178 177 176 177 178 180 182 184 188 192 193 192 191 190 194 197 199 200 203 204
185 180 176 177 174 174 177 181 183 184 183 182 180 180 180 180 179 178 177 178 179 179 178 178 178 179 180 180 179 178 178 178 179 179 180 180 179 178 177 177 178 179 181 181 182 181 180 179 178 177 176 176 176 178 180 182 182 183 183 181 182 185 186 189 191 193 195 196 198
186 179 176 176 174 177 182 187 188 185 181 177 176 175 175 174 174 172 172 172 175 176 175 174 175 177 179 179 176 174 174 175 175 175 175 176 175 174 174 175 176 178 179 180 180 180 179 178 177 176 176 176 177 179 180 179 177 174 171 168 167 171 176 178 184 192 201 208 212
190 186 183 182 181 183 186 190 189 183 177 173 173 172 169 166 165 165 167 169 171 172 171 172 174 176 176 174 171 169 169 170 171 171 170 171 170 170 171 172 173 175 176 177 177 177 177 177 176 176 176 177 178 178 176 172 167 161 158 157 158 167 178 185 191 200 211 220 223
190 190 190 190 190 191 191 189 184 177 172 170 169 167 162 158 157 159 162 165 167 168 170 172 174 175 172 168 165 163 163 164 165 165 165 165 166 166 168 169 170 171 172 174 174 174 174 175 175 175 175 174 174 172 169 162 156 155 158 163 168 176 186 192 198 204 210 214 212
186 187 191 194 195 195 193 186 179 172 167 165 163 161 158 156 154 155 158 161 165 168 170 172 173 170 166 163 159 158 157 157 158 159 159 159 160 162 164 165 167 168 169 170 171 172 171 172 172 172 171 169 166 163 159 154 154 157 162 166 170 176 182 186 191 195 194 189 182
182 185 189 194 197 195 188 180 173 167 162 160 158 158 158 156 153 151 154 159 164 168 169 169 167 162 158 155 154 152 151 150 150 150 151 152 153 156 158 160 162 164 166 169 170 171 170 169 168 168 166 163 158 154 151 151 156 161 166 168 169 170 172 174 178 178 175 169 164
181 184 188 192 190 185 178 169 165 161 158 157 156 155 155 153 150 150 154 159 162 164 163 160 156 152 148 147 147 147 146 145 144 144 145 147 149 152 155 157 159 163 168 171 172 171 170 169 168 166 162 157 153 152 154 158 165 169 169 169 168 166 164 164 165 164 162 159 156
181 183 186 189 182 171 161 157 156 154 153 152 152 152 150 149 149 151 154 156 157 156 153 149 146 143 141 141 142 142 141 140 141 142 144 146 150 154 157 159 163 168 172 174 172 171 171 172 172 169 164 159 156 156 157 161 165 166 166 167 168 166 161 158 156 155 154 153 151
182 183 185 184 173 159 149 146 146 146 146 147 147 146 146 147 149 151 151 151 150 147 144 141 138 136 135 135 136 136 137 137 138 140 144 149 154 157 161 165 168 172 174 173 172 171 172 173 175 173 170 164 162 159 157 156 158 162 165 166 167 165 161 156 153 152 151 150 149
182 182 180 173 159 149 143 140 138 139 140 141 141 141 143 146 148 148 147 145 144 140 137 134 133 132 131 131 132 134 136 135 134 135 140 147 151 155 159 163 168 171 171 171 171 172 173 174 175 175 172 167 162 159 156 155 159 163 165 164 164 163 160 157 154 153 152 151 150
175 173 168 159 150 145 141 138 135 134 135 136 138 140 142 144 145 144 142 141 138 135 133 131 131 130 130 129 131 132 133 132 131 132 134 137 141 147 152 157 161 164 166 168 170 172 174 174 174 174 173 170 166 162 160 160 162 163 164 163 163 162 161 158 156 155 154 154 152
160 159 154 148 144 142 140 136 134 133 133 135 137 138 139 139 139 138 137 135 134 132 132 131 130 129 128 127 127 127 127 127 128 129 130 129 128 130 136 143 149 155 160 164 168 171 174 176 176 176 176 175 172 167 163 162 163 162 162 162 163 163 161 158 156 154 154 153 152
143 143 140 138 137 136 135 134 133 133 134 135 135 135 134 133 132 131 131 130 130 130 130 130 129 127 126 125 124 124 124 125 126 126 125 124 122 123 126 132 138 145 154 162 166 170 173 176 177 177 177 175 171 167 162 161 160 160 160 160 161 160 157 154 152 151 151 150 149
127 128 128 129 130 130 130 130 132 134 134 134 133 131 129 127 124 124 124 125 126 126 126 126 125 125 124 124 124 125 124 124 124 123 123 123 122 122 123 124 127 134 146 158 164 168 171 173 175 175 174 172 167 163 159 156 155 154 154 155 155 154 153 151 150 149 149 149 147
114 116 118 120 123 124 126 128 131 132 132 131 129 127 124 121 119 118 118 119 120 121 122 122 122 123 123 124 124 124 124 123 123 123 123 123 122 121 120 119 120 126 136 148 156 161 165 168 169 170 168 165 160 155 151 149 148 148 149 150 150 150 150 149 149 149 148 147 144
107 109 110 112 115 118 122 125 127 127 126 124 121 119 117 116 115 114 114 116 117 117 118 119 120 121 122 124 124 124 123 123 123 123 123 123 122 120 117 116 117 122 130 137 143 149 153 157 159 160 159 155 149 146 145 145 145 146 147 147 147 147 146 146 146 146 145 143 141
107 108 108 109 110 113 115 119 120 119 117 115 113 112 113 114 114 115 116 117 118 117 117 117 118 119 119 121 122 122 122 122 122 121 121 122 121 118 115 114 117 122 128 132 136 139 142 145 148 149 149 146 143 143 144 145 145 145 146 147 146 145 144 144 144 144 143 141 140
111 112 112 111 111 111 111 113 114 113 112 110 110 111 112 113 115 117 119 120 119 118 116 116 117 117 116 116 116 118 119 119 119 118 118 119 118 115 113 114 117 123 128 131 134 136 137 139 141 144 145 145 144 144 144 144 142 142 143 142 142 141 141 141 142 142 142 139 135
114 116 116 115 114 113 113 113 112 111 110 110 111 111 112 113 115 117 120 121 119 117 115 116 116 116 115 114 113 114 116 117 116 115 114 115 114 113 112 114 117 121 126 130 133 134 135 137 140 145 149 149 147 146 144 141 138 137 136 134 133 133 134 135 137 139 139 136 131
113 117 118 118 117 116 116 115 114 113 112 112 113 113 114 116 116 118 121 122 120 118 117 117 115 115 115 115 114 113 113 114 114 112 111 111 112 113 113 114 116 119 122 126 128 130 132 136 142 151 155 154 150 148 144 140 136 133 131 129 127 125 127 129 132 133 134 133 131
110 114 117 117 117 117 117 116 116 115 115 115 115 116 117 118 119 121 123 124 122 121 119 116 115 115 116 116 115 113 112 112 113 112 111 110 113 115 116 115 116 118 121 123 126 129 132 136 145 155 160 158 153 149 146 141 137 133 130 128 124 121 121 122 122 123 126 129 131
107 111 113 114 115 115 115 115 115 116 117 117 117 117 118 119 120 122 123 123 122 121 119 117 116 116 117 116 115 112 111 111 112 112 112 113 115 117 117 116 116 118 122 127 131 133 136 138 144 153 160 159 154 149 145 141 136 132 128 126 123 119 116 114 114 116 121 126 129
104 106 108 109 111 112 113 113 114 115 117 117 117 118 119 120 121 121 121 120 119 119 118 117 116 116 116 115 113 111 109 108 108 110 112 113 113 113 113 113 113 117 122 130 135 137 137 135 137 145 153 155 151 147 144 140 134 129 126 125 123 120 116 115 115 117 121 125 128
Height
705 706 707 707 708 709 710 711 712 713 715 716 717 718 719 720 721 722 724 725 727 729 730 731 732 733 735 736 737 738 739 740 741 742 743 745 747 749 750 752 753 754 755 756 756 757 759 760 761 762 763 764 765 766 767 768 770 770 772 773 774 775 776 777 778 779 780 781 782
705 706 706 707 708 708 709 710 712 713 715 715 716 717 718 720 720 721 723 724 726 728 730 731 731 733 734 735 736 737 738 740 740 741 743 745 747 748 750 750 752 753 754 755 755 756 758 759 760 761 762 763 764 765 767 768 769 770 771 772 773 774 775 776 777 778 779 780 781
705 706 706 707 707 708 709 710 711 713 714 715 716 717 718 719 720 721 722 724 725 727 729 730 731 732 733 734 735 736 738 739 739 740 742 744 746 748 749 750 750 752 754 755 755 756 757 758 760 760 761 762 764 765 766 767 768 769 770 771 772 773 774 775 776 777 778 779 780
705 705 706 707 707 708 708 709 710 712 713 715 715 716 717 719 720 720 722 723 725 727 728 729 730 731 733 734 735 736 737 738 738 740 741 743 745 747 747 748 750 751 753 754 755 755 756 758 759 760 761 762 763 764 765 766 767 769 770 770 771 772 773 774 775 776 777 778 779
705 705 706 706 707 708 708 709 710 711 713 714 715 716 717 718 719 720 722 723 725 726 728 728 730 730 732 733 734 735 736 737 738 739 740 742 744 745 746 747 749 751 752 753 754 755 756 757 758 759 760 761 762 764 765 765 767 768 769 770 770 771 772 774 775 775 776 777 778
704 705 705 706 707 708 708 709 710 711 712 714 715 715 716 717 719 720 721 722 724 726 727 728 729 730 731 732 733 734 735 736 737 738 740 741 743 744 745 747 749 751 752 753 754 755 755 757 758 759 760 761 762 763 764 765 766 767 768 769 770 770 772 773 774 775 775 776 777
704 704 705 706 707 708 709 709 710 711 712 713 714 715 716 717 718 720 721 722 724 725 726 727 728 729 730 731 732 733 735 736 737 738 739 740 742 743 745 747 749 750 752 752 753 754 755 756 757 758 759 760 761 762 763 764 765 766 767 768 769 770 771 772 773 774 775 775 776
703 704 705 706 707 708 708 709 710 711 712 713 714 715 716 717 718 720 721 723 724 725 725 726 727 728 729 730 731 733 734 735 736 737 739 740 741 743 745 747 749 750 751 751 752 753 755 756 757 758 759 760 760 762 763 764 765 765 766 768 768 769 770 771 772 773 774 775 775
703 704 705 706 707 708 708 709 710 710 711 712 714 715 716 717 719 720 721 722 723 724 724 725 726 727 728 730 731 732 733 734 735 736 738 739 741 742 744 746 748 749 750 751 752 753 754 755 756 757 758 759 760 761 762 763 764 765 766 767 768 769 770 770 771 772 773 774 775
703 703 704 705 706 707 708 709 710 710 711 712 714 715 716 718 719 720 721 722 722 723 723 724 725 726 728 729 730 731 732 734 735 736 737 739 740 742 744 745 747 748 749 750 751 752 754 755 755 756 757 758 759 760 761 762 763 765 765 766 767 768 769 770 770 771 772 773 774
702 702 703 705 706 707 708 708 709 710 711 712 714 715 716 718 719 720 720 721 721 722 723 724 725 726 727 728 730 731 732 733 734 736 737 739 740 741 743 745 746 747 748 749 750 752 753 754 755 756 757 758 759 760 760 761 763 764 765 765 766 767 768 769 770 770 771 772 773
701 702 703 704 705 706 707 708 709 710 711 713 714 715 716 717 718 719 719 720 720 721 722 723 724 725 727 728 729 730 731 733 734 735 737 738 739 740 742 744 745 746 747 748 750 751 752 753 754 755 756 757 758 759 760 761 762 763 764 765 766 766 767 768 769 770 770 771 772
702 703 703 704 705 706 707 708 709 710 711 713 714 715 715 716 717 717 718 719 720 721 722 723 724 725 726 728 729 730 731 733 734 735 736 737 739 740 742 743 744 745 747 748 749 750 751 753 754 755 755 756 757 758 759 760 761 762 763 764 765 766 767 767 768 769 770 770 771
702 702 703 703 705 705 707 708 710 710 711 712 713 714 715 715 716 716 717 718 719 721 722 723 724 725 726 727 729 730 731 733 734 735 735 737 738 740 741 743 744 745 746 747 748 750 751 752 753 754 755 756 757 758 759 760 761 762 763 764 764 765 766 766 767 768 769 770 770
701 702 702 703 704 705 706 708 709 710 710 711 712 713 714 714 715 715 716 718 719 720 721 723 724 725 726 727 729 730 731 732 733 734 735 737 738 740 741 742 743 744 745 747 748 749 750 751 753 754 754 755 756 757 758 759 760 761 762 763 764 765 765 766 766 767 768 769 770
701 702 702 703 704 705 705 706 707 708 709 710 711 712 713 713 714 715 716 717 719 720 721 722 724 725 726 728 729 730 731 732 733 735 736 737 738 739 740 741 742 743 745 746 747 749 750 751 752 753 754 755 756 757 758 759 760 760 761 762 763 764 765 765 766 766 767 768 769
702 702 702 703 703 704 705 706 707 708 709 710 710 711 712 713 714 715 716 717 718 720 721 722 724 725 726 728 729 730 731 732 733 735 736 737 738 739 740 740 741 743 744 746 747 749 750 751 752 753 754 755 755 756 757 758 759 760 760 761 762 763 764 764 765 766 767 767 768
702 702 702 702 703 704 705 706 707 708 708 709 710 711 712 713 714 715 715 717 718 719 721 722 724 725 726 728 729 730 731 732 733 735 735 736 737 738 739 740 741 743 744 745 747 748 749 750 751 752 753 754 755 756 757 758 759 759 760 761 761 762 763 764 765 765 766 767 767
701 701 701 702 703 704 705 706 707 708 708 709 710 711 712 712 713 714 715 716 718 719 721 722 724 725 727 728 729 730 731 732 733 735 735 736 737 738 739 740 741 743 744 745 747 748 749 750 751 752 753 754 755 755 756 757 758 759 760 760 761 762 763 763 764 765 765 766 767
701 701 701 702 703 704 705 706 707 708 709 709 710 711 712 712 713 714 715 716 718 720 721 722 724 725 727 728 729 730 731 732 734 735 735 736 737 738 739 740 741 743 744 745 746 748 749 750 750 751 752 753 754 755 755 756 757 758 759 760 761 761 762 763 763 764 764 765 765
701 701 702 702 703 704 705 707 707 708 709 709 710 711 712 713 714 714 715 717 718 720 721 723 725 726 727 728 729 730 731 732 734 735 735 736 737 738 739 740 741 743 744 745 746 747 748 749 750 750 751 752 753 754 755 756 757 758 759 760 760 760 761 761 762 763 763 764 765
701 701 702 703 704 705 705 707 707 708 709 709 710 711 712 713 714 715 716 717 719 720 722 724 725 726 727 728 729 730 731 733 734 735 735 736 737 738 739 740 741 743 744 745 745 746 747 748 749 750 751 752 753 754 755 755 756 757 758 758 759 759 760 760 761 762 763 764 764
701 701 702 703 704 705 706 706 707 708 709 710 710 711 712 713 714 715 716 718 719 721 723 725 726 727 727 728 729 730 731 733 734 735 735 736 737 738 739 740 741 742 743 744 745 746 747 748 749 750 750 751 752 753 754 755 755 756 757 757 758 759 760 760 761 762 763 763 764
700 701 702 703 704 705 706 706 707 708 709 710 710 711 712 713 714 715 717 718 720 722 724 725 726 727 728 729 730 731 732 733 734 735 735 736 737 738 739 740 741 742 743 744 745 745 746 747 748 749 750 751 752 753 754 754 755 755 756 757 758 759 759 760 761 762 762 763 764
700 701 702 703 705 705 706 707 707 708 709 710 711 712 713 714 715 716 718 720 721 723 724 725 726 727 728 729 730 731 732 733 733 734 735 736 737 738 739 740 741 742 743 744 744 745 746 746 747 748 750 750 751 752 753 753 754 755 756 757 757 758 759 760 761 762 762 763 764
700 701 703 704 705 706 706 707 708 708 709 710 712 713 714 715 716 718 719 721 722 723 724 725 726 727 728 729 730 731 732 733 733 734 735 735 736 737 738 739 740 741 742 743 744 745 745 746 747 748 749 750 750 751 752 753 754 755 756 756 757 758 759 760 761 762 762 763 764
701 702 703 705 705 706 707 707 708 709 710 711 712 713 715 716 717 719 720 721 723 724 725 725 726 727 728 729 730 731 732 732 733 734 735 735 736 737 738 739 740 741 742 743 743 744 745 746 747 747 748 749 750 751 752 753 754 755 756 756 757 758 759 760 761 762 762 763 764
702 703 704 705 706 707 707 708 709 709 710 712 713 715 716 717 719 720 721 722 723 724 725 725 726 727 728 729 730 731 731 732 733 734 735 736 736 737 738 739 740 740 741 742 743 744 745 745 746 747 748 749 750 751 752 753 754 755 756 757 758 759 759 760 761 762 763 763 764
702 703 705 705 706 708 708 709 710 710 712 713 714 715 717 718 719 720 721 722 723 723 724 725 726 727 728 729 730 731 732 733 734 735 735 736 737 738 738 739 740 740 741 742 743 744 745 745 746 747 748 749 750 751 752 753 754 755 756 757 758 759 760 760 761 762 763 763 764
703 704 705 706 707 709 710 710 711 712 713 714 715 717 718 719 720 721 721 722 723 723 724 725 726 727 728 729 730 731 732 733 734 735 736 736 737 738 738 739 740 741 741 742 743 744 745 745 746 747 747 748 749 750 752 753 754 755 756 757 758 759 760 760 761 762 762 763 763
703 704 705 707 708 709 710 711 712 713 715 715 716 717 718 719 720 721 722 722 723 723 724 725 726 728 729 730 731 732 733 734 735 736 736 737 737 738 739 740 740 741 742 743 743 744 745 745 746 746 747 748 749 750 751 752 754 755 756 757 758 759 760 761 761 762 762 763 763
704 705 706 707 709 710 711 712 714 715 715 716 717 718 719 720 720 721 722 722 723 724 725 726 727 728 730 730 732 733 734 735 736 737 737 738 739 739 740 740 741 742 743 743 744 744 745 745 746 747 747 748 749 750 751 752 754 755 756 757 758 759 760 761 761 762 762 763 763
704 705 707 709 710 711 712 714 715 716 716 717 718 719 719 720 721 721 722 723 724 725 726 727 728 730 730 732 733 734 735 735 737 738 738 739 739 740 740 741 742 743 744 744 744 745 745 746 746 747 748 749 750 751 752 753 754 755 756 758 759 760 760 761 761 762 762 763 763
705 707 709 710 711 713 714 715 716 716 717 718 719 719 720 720 721 722 723 724 725 726 727 728 730 731 732 733 733 734 735 737 738 739 739 740 740 740 741 742 743 744 745 745 745 745 746 747 747 748 749 750 750 751 752 753 755 756 757 758 759 760 760 761 761 762 762 763 763
707 709 710 712 713 714 715 716 716 717 718 718 719 720 720 721 722 723 724 725 726 727 728 730 731 732 733 734 735 735 736 737 739 739 740 740 741 741 741 742 744 745 745 745 746 746 747 748 748 749 750 750 751 752 753 754 755 756 757 758 759 760 760 761 761 762 763 763 764
710 711 712 713 714 715 716 717 717 718 719 719 720 721 721 722 723 724 725 726 727 728 730 731 732 733 734 735 736 737 738 738 739 740 741 741 741 741 742 743 745 745 746 747 747 748 748 749 749 750 750 751 752 753 754 755 755 756 757 758 759 760 760 761 762 763 763 764 764
712 713 714 715 716 717 718 718 719 719 720 720 721 722 723 724 725 726 727 727 728 730 731 732 733 734 735 736 737 738 739 740 740 741 742 742 742 742 743 744 745 747 747 748 748 749 749 750 750 750 751 751 752 753 754 755 756 757 758 759 760 760 761 762 762 763 764 764 765
715 715 715 716 717 718 719 720 720 721 721 722 723 724 724 725 726 727 728 729 730 731 732 734 735 735 736 737 738 740 740 741 741 742 742 743 743 743 744 745 746 748 749 749 750 750 750 750 751 751 751 752 753 754 755 755 756 757 758 759 760 761 762 762 763 764 764 765 765
717 717 717 717 718 719 720 721 722 722 723 724 724 725 726 726 728 729 730 730 731 732 733 735 736 737 738 738 739 740 741 742 742 743 743 744 744 745 745 746 747 749 749 750 750 750 751 751 751 752 752 753 753 754 755 756 757 758 759 760 761 762 762 763 764 764 765 765 766
719 719 719 719 720 720 721 722 723 724 724 725 725 726 727 728 729 730 731 732 732 733 734 735 737 738 739 739 740 741 742 743 743 744 744 745 745 746 747 747 748 749 750 750 751 751 751 752 752 752 753 753 754 755 755 756 757 758 759 760 761 762 763 764 764 765 765 766 766
720 720 720 720 721 721 722 723 724 725 725 726 726 727 728 729 730 731 732 733 734 734 735 736 738 739 739 740 740 741 742 743 744 745 745 746 747 747 748 748 749 750 750 751 751 752 752 752 753 753 753 754 754 755 756 757 758 759 760 761 762 763 764 764 765 766 766 767 767